Location: Caltech
(34.1382°N, 118.1253°W)
Time: 07:29:38
(UTC-07:00)

SL-16 R/B - Visible Passes

Search period start: 27 March 2017 00:00
Search period end: 06 April 2017 00:00
Orbit: 842 x 846 km, 71.0° (Epoch: 25 March)

Date Brightness Start Highest point End Pass type
(mag) Time Alt. Az. Time Alt. Az. Time Alt. Az.
27 Mar 5.1 02:32:08 11° NNE 02:32:08 11° NNE 02:32:17 10° NNE visible
27 Mar 4.4 04:13:59 13° NNW 04:13:59 13° NNW 04:15:03 10° NNW visible
28 Mar 4.5 04:00:03 13° NNW 04:00:03 13° NNW 04:00:52 10° NNW visible
29 Mar 4.6 03:46:05 12° NNW 03:46:05 12° NNW 03:46:42 10° NNW visible
30 Mar 4.7 03:32:06 11° NNW 03:32:06 11° NNW 03:32:31 10° N visible
31 Mar 4.8 03:18:05 11° NNW 03:18:05 11° NNW 03:18:20 10° N visible
01 Apr 4.9 03:04:02 10° N 03:04:02 10° N 03:04:09 10° N visible
